DKH1099 ZSPD-ZPPP

Flight info

Callsign DKH1099
Flight time N/A
Altitude 34100
Route POMOK G330 UNTAN G345 OLRIS R343 MADUK W51 LEGIV W164 ADGOL W50 XSH W80 IDGAG A581 QNX W136 XISLI
Aircraft A320/M-SDE3FGHIRWY/LB1

Departure

Time 2026-05-05 11:20
Airport Shanghai Pudong International Airport (ZSPD)

Arrival

Time N/A
Airport Kunming Changshui International Airport (ZPPP)
Time Latitude Longitude Altitude Speed Heading
2026-05-05 10:32 31.14709 121.80915 23 ft 0 kts 327°
2026-05-05 10:59 31.14703 121.80920 23 ft 4 kts 327°
2026-05-05 10:59 31.14684 121.80933 23 ft 4 kts 340°
2026-05-05 10:59 31.14659 121.80937 25 ft 4 kts 22°
2026-05-05 10:59 31.14641 121.80919 24 ft 3 kts 72°
2026-05-05 11:00 31.14638 121.80909 24 ft 0 kts 72°
2026-05-05 11:04 31.14639 121.80914 23 ft 0 kts 72°
2026-05-05 11:05 31.14639 121.80915 23 ft 1 kts 72°
2026-05-05 11:05 31.14646 121.80941 24 ft 5 kts 72°
2026-05-05 11:05 31.14662 121.80999 23 ft 9 kts 72°
2026-05-05 11:05 31.14677 121.81063 24 ft 7 kts 89°
2026-05-05 11:06 31.14650 121.81101 24 ft 7 kts 154°
2026-05-05 11:06 31.14594 121.81124 23 ft 10 kts 162°
2026-05-05 11:06 31.14519 121.81153 23 ft 12 kts 162°
2026-05-05 11:06 31.14449 121.81162 23 ft 10 kts 208°
2026-05-05 11:07 31.14424 121.81095 23 ft 8 kts 252°
2026-05-05 11:07 31.14407 121.81037 24 ft 7 kts 251°
2026-05-05 11:07 31.14393 121.80987 24 ft 8 kts 252°
2026-05-05 11:07 31.14372 121.80908 23 ft 12 kts 252°
2026-05-05 11:08 31.14340 121.80795 24 ft 17 kts 252°
2026-05-05 11:08 31.14300 121.80649 23 ft 21 kts 252°
2026-05-05 11:08 31.14251 121.80472 23 ft 24 kts 252°
2026-05-05 11:08 31.14197 121.80282 23 ft 25 kts 252°
2026-05-05 11:09 31.14143 121.80086 23 ft 25 kts 252°
2026-05-05 11:09 31.14097 121.79918 23 ft 19 kts 252°
2026-05-05 11:09 31.14063 121.79796 23 ft 9 kts 252°
2026-05-05 11:09 31.14050 121.79741 25 ft 6 kts 256°
2026-05-05 11:10 31.14040 121.79680 23 ft 9 kts 259°
2026-05-05 11:10 31.14041 121.79615 25 ft 7 kts 302°
2026-05-05 11:10 31.14087 121.79587 23 ft 9 kts 341°
2026-05-05 11:10 31.14161 121.79559 23 ft 13 kts 342°
2026-05-05 11:11 31.14257 121.79523 23 ft 14 kts 342°
2026-05-05 11:11 31.14343 121.79491 23 ft 12 kts 342°
2026-05-05 11:11 31.14431 121.79458 23 ft 16 kts 342°
2026-05-05 11:11 31.14532 121.79419 23 ft 14 kts 342°
2026-05-05 11:12 31.14619 121.79387 23 ft 12 kts 342°
2026-05-05 11:12 31.14706 121.79353 23 ft 15 kts 342°
2026-05-05 11:12 31.14820 121.79310 23 ft 19 kts 342°
2026-05-05 11:12 31.14961 121.79256 23 ft 23 kts 341°
2026-05-05 11:13 31.15118 121.79198 23 ft 24 kts 343°
2026-05-05 11:13 31.15280 121.79137 23 ft 25 kts 342°
2026-05-05 11:13 31.15445 121.79074 22 ft 26 kts 342°
2026-05-05 11:13 31.15620 121.79009 22 ft 26 kts 342°
2026-05-05 11:14 31.15793 121.78943 22 ft 25 kts 342°
2026-05-05 11:14 31.15939 121.78888 23 ft 20 kts 342°
2026-05-05 11:14 31.16050 121.78846 23 ft 14 kts 342°
2026-05-05 11:14 31.16122 121.78819 23 ft 9 kts 340°
2026-05-05 11:15 31.16151 121.78772 23 ft 7 kts 277°
2026-05-05 11:15 31.16141 121.78727 23 ft 4 kts 251°
2026-05-05 11:15 31.16141 121.78725 23 ft 0 kts 251°
2026-05-05 11:17 31.16130 121.78688 23 ft 6 kts 252°
2026-05-05 11:17 31.16123 121.78662 25 ft 5 kts 252°
2026-05-05 11:18 31.16109 121.78619 22 ft 4 kts 233°
2026-05-05 11:18 31.16094 121.78612 22 ft 4 kts 189°
2026-05-05 11:18 31.16068 121.78621 23 ft 0 kts 162°
2026-05-05 11:19 31.16066 121.78622 22 ft 6 kts 162°
2026-05-05 11:19 31.15783 121.78727 23 ft 77 kts 162°
2026-05-05 11:19 31.14779 121.79107 29 ft 147 kts 162°
2026-05-05 11:19 31.14060 121.79376 39 ft 173 kts 162°
2026-05-05 11:20 31.12918 121.79796 671 ft 169 kts 163°
2026-05-05 11:20 31.11814 121.80196 1429 ft 164 kts 166°
2026-05-05 11:20 31.10736 121.80559 2106 ft 161 kts 167°
2026-05-05 11:20 31.09650 121.80918 2640 ft 164 kts 166°
2026-05-05 11:21 31.08549 121.81286 3170 ft 166 kts 165°
2026-05-05 11:21 31.07381 121.81679 3424 ft 184 kts 165°
2026-05-05 11:21 31.06071 121.82120 3575 ft 208 kts 165°
2026-05-05 11:21 31.04594 121.82619 3788 ft 233 kts 164°
2026-05-05 11:22 31.02975 121.83169 4305 ft 245 kts 164°
2026-05-05 11:22 31.01335 121.83682 5177 ft 244 kts 172°
2026-05-05 11:22 30.99657 121.83399 5762 ft 252 kts 207°
2026-05-05 11:22 30.98391 121.82030 5904 ft 252 kts 240°
2026-05-05 11:23 30.97739 121.80169 5918 ft 252 kts 253°
2026-05-05 11:23 30.97327 121.78202 5932 ft 262 kts 257°
2026-05-05 11:23 30.96931 121.76074 5921 ft 272 kts 257°
2026-05-05 11:23 30.96496 121.73919 5923 ft 274 kts 255°
2026-05-05 11:24 30.96257 121.71717 5923 ft 275 kts 272°
2026-05-05 11:24 30.96602 121.69501 6368 ft 281 kts 284°
2026-05-05 11:24 30.97056 121.67284 7222 ft 281 kts 282°
2026-05-05 11:24 30.97467 121.65075 8029 ft 282 kts 281°
2026-05-05 11:25 30.97869 121.62817 8828 ft 284 kts 281°
2026-05-05 11:25 30.98270 121.60558 9617 ft 286 kts 281°
2026-05-05 11:25 30.98678 121.58272 10293 ft 292 kts 281°
2026-05-05 11:25 30.99113 121.55869 10486 ft 315 kts 282°
2026-05-05 11:26 30.99586 121.53288 10754 ft 333 kts 282°
2026-05-05 11:26 31.00073 121.50634 11317 ft 339 kts 282°
2026-05-05 11:26 31.00568 121.47932 12015 ft 341 kts 282°
2026-05-05 11:26 31.01064 121.45219 12701 ft 343 kts 282°
2026-05-05 11:27 31.01564 121.42492 13369 ft 346 kts 282°
2026-05-05 11:27 31.02071 121.39739 13991 ft 349 kts 282°
2026-05-05 11:27 31.02584 121.36965 14559 ft 352 kts 282°
2026-05-05 11:27 31.03098 121.34168 15140 ft 355 kts 282°
2026-05-05 11:28 31.03574 121.31568 15650 ft 357 kts 282°
2026-05-05 11:28 31.04094 121.28732 16219 ft 360 kts 282°
2026-05-05 11:28 31.04620 121.25861 16786 ft 363 kts 282°
2026-05-05 11:28 31.05146 121.22974 17339 ft 365 kts 282°
2026-05-05 11:29 31.05678 121.20069 17878 ft 368 kts 283°
2026-05-05 11:29 31.06577 121.17264 18374 ft 372 kts 299°
2026-05-05 11:29 31.08161 121.14883 18822 ft 376 kts 316°
2026-05-05 11:29 31.10335 121.13152 19275 ft 382 kts 334°
2026-05-05 11:30 31.12892 121.12280 19723 ft 389 kts 351°
2026-05-05 11:30 31.15610 121.12080 20170 ft 392 kts 355°
2026-05-05 11:30 31.18340 121.11932 20627 ft 394 kts 355°
2026-05-05 11:30 31.21082 121.11787 21084 ft 397 kts 355°
2026-05-05 11:31 31.23838 121.11640 21521 ft 399 kts 355°
2026-05-05 11:31 31.26623 121.11491 21959 ft 401 kts 355°
2026-05-05 11:31 31.29411 121.11336 22391 ft 404 kts 355°
2026-05-05 11:31 31.32225 121.11175 22820 ft 406 kts 355°
2026-05-05 11:32 31.35020 121.11032 23234 ft 408 kts 358°
2026-05-05 11:32 31.37694 121.11169 23598 ft 412 kts
2026-05-05 11:32 31.40561 121.11361 23938 ft 414 kts
2026-05-05 11:32 31.43437 121.11338 24259 ft 414 kts 352°
2026-05-05 11:33 31.46266 121.10739 24582 ft 413 kts 342°
2026-05-05 11:33 31.48958 121.09583 24906 ft 413 kts 333°
2026-05-05 11:33 31.51547 121.08195 25224 ft 415 kts 333°
2026-05-05 11:33 31.54211 121.06775 25547 ft 417 kts 333°
2026-05-05 11:34 31.56865 121.05365 25867 ft 419 kts 334°
2026-05-05 11:34 31.59528 121.03954 26186 ft 421 kts 334°
2026-05-05 11:34 31.62200 121.02536 26504 ft 422 kts 334°
2026-05-05 11:34 31.64884 121.01108 26817 ft 424 kts 334°
2026-05-05 11:35 31.67576 120.99674 27124 ft 426 kts 333°
2026-05-05 11:35 31.70284 120.98229 27424 ft 428 kts 334°
2026-05-05 11:35 31.73002 120.96777 27743 ft 430 kts 334°
2026-05-05 11:35 31.75728 120.95321 28054 ft 431 kts 334°
2026-05-05 11:36 31.78467 120.93857 28349 ft 433 kts 334°
2026-05-05 11:36 31.81212 120.92386 28637 ft 435 kts 334°
2026-05-05 11:36 31.83969 120.90907 28919 ft 436 kts 334°
2026-05-05 11:36 31.86737 120.89423 29201 ft 438 kts 334°
2026-05-05 11:37 31.89515 120.87935 29471 ft 439 kts 334°
2026-05-05 11:37 31.92301 120.86443 29741 ft 441 kts 334°
2026-05-05 11:37 31.95099 120.84947 30015 ft 442 kts 334°
2026-05-05 11:37 31.97897 120.83449 30232 ft 443 kts 334°
2026-05-05 11:38 32.00702 120.81943 30487 ft 443 kts 334°
2026-05-05 11:38 32.03505 120.80435 30788 ft 443 kts 334°
2026-05-05 11:38 32.06307 120.78927 31079 ft 442 kts 334°
2026-05-05 11:38 32.09103 120.77417 31359 ft 442 kts 332°
2026-05-05 11:39 32.11719 120.75558 31623 ft 439 kts 321°
2026-05-05 11:39 32.13938 120.73112 31887 ft 437 kts 309°
2026-05-05 11:39 32.15682 120.70184 32159 ft 435 kts 298°
2026-05-05 11:39 32.16886 120.66916 32427 ft 435 kts 287°
2026-05-05 11:40 32.17507 120.63436 32693 ft 435 kts 276°
2026-05-05 11:40 32.17805 120.59882 32953 ft 435 kts 276°
2026-05-05 11:40 32.18099 120.56334 33242 ft 434 kts 276°
2026-05-05 11:40 32.18394 120.52794 33526 ft 433 kts 276°
2026-05-05 11:41 32.18688 120.49259 33807 ft 433 kts 276°
2026-05-05 11:41 32.18976 120.45766 34020 ft 433 kts 276°
2026-05-05 11:41 32.19270 120.42200 34066 ft 429 kts 276°
2026-05-05 11:42 32.19842 120.35210 34072 ft 427 kts 276°
2026-05-05 11:42 32.19574 120.28228 34070 ft 429 kts 258°
2026-05-05 11:43 32.17350 120.21816 34067 ft 433 kts 243°
2026-05-05 11:43 32.14472 120.15574 34067 ft 434 kts 244°
2026-05-05 11:44 32.11615 120.09305 34064 ft 434 kts 244°
2026-05-05 11:44 32.08753 120.03044 34061 ft 434 kts 244°
2026-05-05 11:45 32.05894 119.96828 34059 ft 434 kts 244°
2026-05-05 11:45 32.02995 119.90535 34053 ft 434 kts 244°
2026-05-05 11:46 32.00177 119.84309 34045 ft 434 kts 244°
2026-05-05 11:46 31.97351 119.78030 34045 ft 434 kts 244°
2026-05-05 11:47 31.94494 119.71717 34040 ft 434 kts 244°
2026-05-05 11:47 31.91728 119.65456 34037 ft 434 kts 245°
2026-05-05 11:48 31.87690 119.55905 34034 ft 435 kts 246°
2026-05-05 11:48 31.84961 119.49507 34038 ft 435 kts 245°
2026-05-05 11:49 31.82237 119.43201 34041 ft 436 kts 245°
2026-05-05 11:49 31.79498 119.36851 34030 ft 436 kts 245°
2026-05-05 11:50 31.76698 119.30465 34031 ft 436 kts 245°
2026-05-05 11:50 31.73918 119.24178 34026 ft 437 kts 245°
2026-05-05 11:51 31.71124 119.17848 34009 ft 437 kts 245°
2026-05-05 11:51 31.68332 119.11518 34010 ft 437 kts 245°
2026-05-05 11:52 31.65983 119.04991 34016 ft 432 kts 259°
2026-05-05 11:52 31.65467 118.98049 34003 ft 427 kts 275°
2026-05-05 11:53 31.65926 118.91098 34001 ft 427 kts 277°
2026-05-05 11:53 31.66500 118.84157 34002 ft 428 kts 277°
2026-05-05 11:54 31.67051 118.77202 34003 ft 428 kts 277°
2026-05-05 11:54 31.67566 118.70234 34000 ft 429 kts 277°
2026-05-05 11:55 31.68069 118.63254 34010 ft 429 kts 277°
2026-05-05 11:55 31.68573 118.56265 34011 ft 429 kts 277°
2026-05-05 11:56 31.69066 118.49424 34015 ft 429 kts 277°
2026-05-05 11:56 31.69570 118.42416 34018 ft 429 kts 277°
2026-05-05 11:57 31.70067 118.35434 34018 ft 429 kts 277°
2026-05-05 11:57 31.70561 118.28441 34018 ft 430 kts 277°
2026-05-05 11:58 31.71049 118.21457 34016 ft 429 kts 277°
2026-05-05 11:58 31.71512 118.14816 34017 ft 429 kts 277°
2026-05-05 11:59 31.71256 118.07763 34015 ft 436 kts 261°
2026-05-05 11:59 31.70048 118.01919 34033 ft 441 kts 259°
2026-05-05 12:00 31.68602 117.94928 34043 ft 440 kts 260°
2026-05-05 12:00 31.67167 117.87947 34038 ft 439 kts 260°
2026-05-05 12:01 31.65728 117.80981 34039 ft 439 kts 260°
2026-05-05 12:01 31.64281 117.74021 34030 ft 439 kts 260°
2026-05-05 12:02 31.62826 117.67064 34029 ft 439 kts 260°
2026-05-05 12:02 31.61372 117.60118 34021 ft 438 kts 260°
2026-05-05 12:03 31.59978 117.53163 34012 ft 438 kts 262°
2026-05-05 12:03 31.58762 117.46178 34013 ft 437 kts 263°
2026-05-05 12:04 31.57577 117.39238 34013 ft 437 kts 263°
2026-05-05 12:04 31.56341 117.32206 34012 ft 437 kts 262°
2026-05-05 12:05 31.55095 117.25292 34007 ft 437 kts 262°
2026-05-05 12:05 31.53870 117.18358 34002 ft 437 kts 263°
2026-05-05 12:06 31.52637 117.11333 34002 ft 437 kts 263°
2026-05-05 12:06 31.51400 117.04351 34003 ft 437 kts 263°
2026-05-05 12:07 31.50152 116.97374 33996 ft 437 kts 263°
2026-05-05 12:07 31.48898 116.90401 33998 ft 438 kts 263°
2026-05-05 12:08 31.46957 116.83652 34000 ft 447 kts 246°
2026-05-05 12:08 31.43325 116.77594 33997 ft 454 kts 237°
2026-05-05 12:09 31.39514 116.71767 33993 ft 454 kts 237°
2026-05-05 12:09 31.35646 116.65851 33989 ft 454 kts 237°
2026-05-05 12:10 31.31831 116.60032 33998 ft 454 kts 237°
2026-05-05 12:10 31.27995 116.54183 34010 ft 455 kts 237°
2026-05-05 12:11 31.24118 116.48285 34010 ft 455 kts 237°
2026-05-05 12:11 31.20249 116.42422 34020 ft 455 kts 238°
2026-05-05 12:12 31.16386 116.36573 34018 ft 455 kts 238°
2026-05-05 12:12 31.12511 116.30709 34026 ft 455 kts 238°
2026-05-05 12:13 31.08645 116.24858 34032 ft 455 kts 238°
2026-05-05 12:13 31.04785 116.19012 34030 ft 455 kts 238°
2026-05-05 12:14 31.00916 116.13170 34023 ft 455 kts 238°
2026-05-05 12:14 30.97037 116.07337 34028 ft 456 kts 238°
2026-05-05 12:15 30.93155 116.01494 34026 ft 456 kts 238°
2026-05-05 12:15 30.89272 115.95661 34022 ft 456 kts 238°
2026-05-05 12:16 30.85382 115.89823 34017 ft 456 kts 238°
2026-05-05 12:16 30.81546 115.84027 34015 ft 457 kts 239°
2026-05-05 12:17 30.77685 115.78163 34008 ft 457 kts 238°
2026-05-05 12:17 30.73817 115.72293 34008 ft 457 kts 239°
2026-05-05 12:18 30.69939 115.66430 33997 ft 457 kts 239°
2026-05-05 12:18 30.66058 115.60569 33993 ft 457 kts 239°
2026-05-05 12:19 30.62181 115.54719 33986 ft 457 kts 239°
2026-05-05 12:19 30.58324 115.48912 33986 ft 457 kts 239°
2026-05-05 12:20 30.54438 115.43069 33984 ft 458 kts 239°
2026-05-05 12:20 30.50548 115.37231 33978 ft 458 kts 239°
2026-05-05 12:21 30.46823 115.31342 33970 ft 450 kts 247°
2026-05-05 12:21 30.44654 115.24735 33961 ft 432 kts 266°
2026-05-05 12:22 30.44412 115.17946 33963 ft 415 kts 283°
2026-05-05 12:22 30.45122 115.11307 33969 ft 416 kts 283°
2026-05-05 12:23 30.45805 115.04653 33968 ft 416 kts 283°
2026-05-05 12:23 30.46486 114.98010 33968 ft 416 kts 283°
2026-05-05 12:24 30.47168 114.91341 33964 ft 416 kts 283°
2026-05-05 12:24 30.47844 114.84677 33961 ft 416 kts 283°
2026-05-05 12:25 30.48519 114.78012 33954 ft 416 kts 283°
2026-05-05 12:25 30.49196 114.71347 33948 ft 416 kts 283°
2026-05-05 12:26 30.49866 114.64682 33940 ft 416 kts 283°
2026-05-05 12:26 30.50531 114.58025 33938 ft 416 kts 283°
2026-05-05 12:27 30.51192 114.51355 33930 ft 416 kts 283°
2026-05-05 12:27 30.51852 114.44686 33932 ft 416 kts 283°
2026-05-05 12:28 30.52506 114.38012 33926 ft 417 kts 283°
2026-05-05 12:28 30.53154 114.31339 33923 ft 417 kts 283°
2026-05-05 12:29 30.53805 114.24649 33924 ft 417 kts 283°
2026-05-05 12:29 30.54457 114.17970 33920 ft 417 kts 283°
2026-05-05 12:30 30.55091 114.11289 33926 ft 417 kts 283°
2026-05-05 12:30 30.55725 114.04588 33927 ft 417 kts 283°
2026-05-05 12:31 30.56362 113.97892 33933 ft 418 kts 283°
2026-05-05 12:31 30.56979 113.91295 33930 ft 418 kts 283°
2026-05-05 12:32 30.56962 113.84485 33934 ft 433 kts 267°
2026-05-05 12:32 30.56140 113.81083 33938 ft 445 kts 256°
2026-05-05 12:32 30.54737 113.77840 33936 ft 456 kts 245°
2026-05-05 12:33 30.51292 113.71656 33930 ft 457 kts 245°
2026-05-05 12:33 30.47848 113.65450 33929 ft 457 kts 245°
2026-05-05 12:34 30.44409 113.59253 33924 ft 457 kts 245°
2026-05-05 12:34 30.40960 113.53068 33926 ft 457 kts 245°
2026-05-05 12:35 30.37514 113.46890 33924 ft 457 kts 245°
2026-05-05 12:35 30.34069 113.40714 33929 ft 457 kts 245°
2026-05-05 12:36 30.30616 113.34547 33925 ft 457 kts 245°
2026-05-05 12:36 30.27155 113.28384 33931 ft 456 kts 245°
2026-05-05 12:37 30.23697 113.22232 33932 ft 456 kts 245°
2026-05-05 12:37 30.20246 113.16082 33937 ft 456 kts 245°
2026-05-05 12:38 30.16850 113.09899 33943 ft 455 kts 246°
2026-05-05 12:38 30.13474 113.03720 33939 ft 455 kts 246°
2026-05-05 12:39 30.10649 112.98586 33937 ft 455 kts 246°
2026-05-05 12:39 30.07248 112.92433 33935 ft 455 kts 246°
2026-05-05 12:40 30.03835 112.86274 33946 ft 455 kts 246°
2026-05-05 12:40 30.00422 112.80126 33943 ft 455 kts 246°
2026-05-05 12:41 29.96993 112.73947 33949 ft 454 kts 246°
2026-05-05 12:41 29.93611 112.67850 33949 ft 454 kts 245°
2026-05-05 12:42 29.90196 112.61726 33954 ft 454 kts 245°
2026-05-05 12:42 29.86778 112.55609 33955 ft 454 kts 245°
2026-05-05 12:43 29.83361 112.49497 33951 ft 454 kts 245°
2026-05-05 12:43 29.79946 112.43388 33951 ft 453 kts 245°
2026-05-05 12:44 29.76530 112.37283 33957 ft 453 kts 245°
2026-05-05 12:44 29.73109 112.31190 33958 ft 453 kts 245°
2026-05-05 12:45 29.69678 112.25110 33960 ft 453 kts 245°
2026-05-05 12:45 29.66246 112.19052 33957 ft 453 kts 245°
2026-05-05 12:46 29.62809 112.12984 33960 ft 452 kts 245°
2026-05-05 12:46 29.59371 112.06930 33964 ft 452 kts 245°
2026-05-05 12:47 29.55932 112.00897 33963 ft 452 kts 245°
2026-05-05 12:47 29.52495 111.94858 33955 ft 451 kts 245°
2026-05-05 12:48 29.49060 111.88841 33967 ft 451 kts 245°
2026-05-05 12:48 29.45624 111.82823 33964 ft 450 kts 245°
2026-05-05 12:49 29.42197 111.76819 33961 ft 450 kts 245°
2026-05-05 12:49 29.38767 111.70828 33960 ft 450 kts 244°
2026-05-05 12:50 29.35423 111.64784 33957 ft 443 kts 251°
2026-05-05 12:50 29.33091 111.58354 33955 ft 436 kts 256°
2026-05-05 12:51 29.30851 111.51895 33950 ft 436 kts 256°
2026-05-05 12:51 29.28604 111.45443 33954 ft 436 kts 256°
2026-05-05 12:52 29.26357 111.38985 33956 ft 436 kts 256°
2026-05-05 12:52 29.24112 111.32543 33952 ft 436 kts 256°
2026-05-05 12:53 29.21857 111.26097 33952 ft 436 kts 256°
2026-05-05 12:53 29.19597 111.19657 33951 ft 436 kts 255°
2026-05-05 12:54 29.16195 111.09987 33958 ft 436 kts 255°
2026-05-05 12:55 29.13932 111.03556 33959 ft 436 kts 255°
2026-05-05 12:55 29.11666 110.97114 33966 ft 436 kts 255°
2026-05-05 12:56 29.09393 110.90682 33963 ft 437 kts 255°
2026-05-05 12:56 29.07116 110.84246 33960 ft 437 kts 255°
2026-05-05 12:57 29.04836 110.77814 33967 ft 437 kts 255°
2026-05-05 12:57 29.02550 110.71385 33966 ft 437 kts 255°
2026-05-05 12:58 29.00286 110.64939 33967 ft 436 kts 255°
2026-05-05 12:58 28.98038 110.58494 33974 ft 437 kts 255°
2026-05-05 12:59 28.95783 110.52047 33978 ft 437 kts 255°
2026-05-05 12:59 28.93524 110.45599 33984 ft 437 kts 255°
2026-05-05 13:00 28.90119 110.35951 33990 ft 437 kts 255°
2026-05-05 13:01 28.85567 110.23087 33999 ft 436 kts 255°
2026-05-05 13:01 28.83300 110.16687 34003 ft 436 kts 255°
2026-05-05 13:02 28.81020 110.10275 34018 ft 435 kts 254°
2026-05-05 13:02 28.79961 110.07294 34007 ft 435 kts 254°
2026-05-05 13:07 28.79443 110.05760 34047 ft 433 kts 256°
2026-05-05 13:07 28.77232 109.99404 34023 ft 435 kts 254°
2026-05-05 13:08 28.74912 109.93047 34016 ft 434 kts 253°
2026-05-05 13:08 28.72608 109.86697 34005 ft 433 kts 254°
2026-05-05 13:09 28.70335 109.80347 33999 ft 433 kts 254°
2026-05-05 13:09 28.68064 109.74011 33998 ft 432 kts 254°
2026-05-05 13:10 28.65793 109.67680 33990 ft 431 kts 254°
2026-05-05 13:10 28.63563 109.61355 33987 ft 430 kts 255°
2026-05-05 13:11 28.61406 109.55005 33986 ft 429 kts 255°
2026-05-05 13:11 28.59263 109.48677 33979 ft 429 kts 255°
2026-05-05 13:12 28.56878 109.42421 33978 ft 433 kts 249°
2026-05-05 13:12 28.54178 109.36306 33978 ft 433 kts 249°
2026-05-05 13:13 28.51492 109.30170 33977 ft 433 kts 249°
2026-05-05 13:13 28.48805 109.24057 33977 ft 432 kts 249°
2026-05-05 13:14 28.46108 109.17950 33976 ft 432 kts 249°
2026-05-05 13:14 28.43414 109.11844 33972 ft 432 kts 249°
2026-05-05 13:15 28.40719 109.05756 33974 ft 431 kts 249°
2026-05-05 13:15 28.38013 108.99670 33971 ft 431 kts 249°
2026-05-05 13:16 28.35306 108.93586 33976 ft 431 kts 249°
2026-05-05 13:16 28.32605 108.87512 33969 ft 431 kts 249°
2026-05-05 13:17 28.29942 108.81548 33973 ft 432 kts 249°
2026-05-05 13:17 28.27225 108.75474 33970 ft 432 kts 249°
2026-05-05 13:18 28.24511 108.69402 33967 ft 432 kts 249°
2026-05-05 13:18 28.21800 108.63346 33965 ft 432 kts 249°
2026-05-05 13:19 28.19074 108.57272 33960 ft 432 kts 249°
2026-05-05 13:19 28.16802 108.52226 33957 ft 432 kts 249°
2026-05-05 13:20 28.13599 108.45137 33952 ft 432 kts 249°
2026-05-05 13:20 28.11326 108.40095 33954 ft 432 kts 249°
2026-05-05 13:21 28.08587 108.34028 33954 ft 433 kts 249°
2026-05-05 13:21 28.05839 108.27956 33954 ft 433 kts 248°
2026-05-05 13:22 28.03094 108.21890 33963 ft 433 kts 248°
2026-05-05 13:22 28.00359 108.15839 33962 ft 432 kts 248°
2026-05-05 13:23 27.97621 108.09776 33961 ft 432 kts 248°
2026-05-05 13:23 27.94873 108.03727 33967 ft 433 kts 248°
2026-05-05 13:24 27.92112 107.97683 33963 ft 432 kts 248°
2026-05-05 13:24 27.89363 107.91655 33970 ft 431 kts 248°
2026-05-05 13:25 27.86616 107.85637 33970 ft 430 kts 248°
2026-05-05 13:25 27.83877 107.79636 33969 ft 429 kts 248°
2026-05-05 13:26 27.81148 107.73642 33973 ft 428 kts 248°
2026-05-05 13:26 27.78473 107.67637 33973 ft 427 kts 248°
2026-05-05 13:27 27.75821 107.61642 33976 ft 427 kts 248°
2026-05-05 13:27 27.73159 107.55662 33975 ft 426 kts 248°
2026-05-05 13:28 27.70486 107.49708 33972 ft 425 kts 248°
2026-05-05 13:28 27.67814 107.43755 33972 ft 424 kts 248°
2026-05-05 13:29 27.65151 107.37822 33964 ft 424 kts 248°
2026-05-05 13:29 27.62485 107.31898 33962 ft 423 kts 248°
2026-05-05 13:30 27.59824 107.25997 33957 ft 422 kts 247°
2026-05-05 13:30 27.57161 107.20114 33954 ft 421 kts 247°
2026-05-05 13:31 27.54510 107.14226 33950 ft 421 kts 247°
2026-05-05 13:31 27.51861 107.08343 33950 ft 421 kts 247°
2026-05-05 13:32 27.49206 107.02473 33949 ft 421 kts 247°
2026-05-05 13:32 27.46553 106.96620 33950 ft 420 kts 247°
2026-05-05 13:33 27.43923 106.90742 33944 ft 420 kts 247°
2026-05-05 13:33 27.41304 106.84864 33947 ft 420 kts 247°
2026-05-05 13:34 27.38684 106.78998 33948 ft 420 kts 247°
2026-05-05 13:34 27.36051 106.73133 33946 ft 420 kts 246°
2026-05-05 13:35 27.33400 106.67275 33944 ft 420 kts 246°
2026-05-05 13:35 27.30744 106.61414 33941 ft 420 kts 246°
2026-05-05 13:36 27.28099 106.55548 33939 ft 420 kts 246°
2026-05-05 13:36 27.25451 106.49692 33935 ft 421 kts 246°
2026-05-05 13:37 27.22790 106.43839 33939 ft 421 kts 246°
2026-05-05 13:37 27.20126 106.37980 33942 ft 421 kts 246°
2026-05-05 13:38 27.17460 106.32123 33947 ft 421 kts 246°
2026-05-05 13:38 27.14794 106.26270 33950 ft 421 kts 247°
2026-05-05 13:39 27.12127 106.20419 33956 ft 421 kts 247°
2026-05-05 13:39 27.09456 106.14577 33958 ft 421 kts 247°
2026-05-05 13:40 27.06790 106.08739 33957 ft 421 kts 247°
2026-05-05 13:40 27.04270 106.02838 33958 ft 416 kts 255°
2026-05-05 13:41 27.02948 105.96583 33962 ft 412 kts 262°
2026-05-05 13:41 27.01766 105.90290 33960 ft 412 kts 262°
2026-05-05 13:42 27.00565 105.84014 33958 ft 412 kts 261°
2026-05-05 13:42 26.99363 105.77739 33958 ft 411 kts 261°
2026-05-05 13:43 26.98169 105.71474 33954 ft 411 kts 262°
2026-05-05 13:43 26.96974 105.65216 33954 ft 411 kts 262°
2026-05-05 13:44 26.95779 105.58959 33952 ft 410 kts 261°
2026-05-05 13:44 26.94572 105.52716 33955 ft 410 kts 261°
2026-05-05 13:45 26.93362 105.46484 33950 ft 410 kts 261°
2026-05-05 13:45 26.92160 105.40241 33952 ft 409 kts 261°
2026-05-05 13:46 26.90957 105.34015 33942 ft 409 kts 261°
2026-05-05 13:46 26.89746 105.27798 33943 ft 409 kts 261°
2026-05-05 13:47 26.88531 105.21582 33942 ft 409 kts 261°
2026-05-05 13:47 26.87316 105.15361 33934 ft 408 kts 261°
2026-05-05 13:48 26.86100 105.09150 33930 ft 409 kts 260°
2026-05-05 13:48 26.84873 105.02933 33927 ft 409 kts 260°
2026-05-05 13:49 26.83649 104.96721 33927 ft 409 kts 260°
2026-05-05 13:49 26.82418 104.90502 33924 ft 409 kts 260°
2026-05-05 13:50 26.81202 104.84352 33916 ft 410 kts 259°
2026-05-05 13:50 26.79960 104.78135 33920 ft 409 kts 259°
2026-05-05 13:51 26.78707 104.71921 33916 ft 410 kts 259°
2026-05-05 13:51 26.77403 104.65702 33917 ft 411 kts 254°
2026-05-05 13:52 26.74697 104.60056 33918 ft 418 kts 233°
2026-05-05 13:52 26.70341 104.55662 33917 ft 424 kts 223°
2026-05-05 13:53 26.65757 104.51498 33920 ft 425 kts 223°
2026-05-05 13:53 26.61166 104.47325 33919 ft 425 kts 223°
2026-05-05 13:54 26.56587 104.43158 33922 ft 425 kts 223°
2026-05-05 13:54 26.51992 104.38990 33932 ft 425 kts 223°
2026-05-05 13:55 26.47386 104.34827 33935 ft 426 kts 222°
2026-05-05 13:55 26.42789 104.30674 33950 ft 425 kts 222°
2026-05-05 13:56 26.38193 104.26514 33941 ft 425 kts 222°
2026-05-05 13:56 26.33593 104.22362 33948 ft 425 kts 222°
2026-05-05 13:57 26.29000 104.18218 33947 ft 425 kts 222°
2026-05-05 13:57 26.24398 104.14075 33958 ft 426 kts 222°
2026-05-05 13:58 26.22089 104.11999 33780 ft 429 kts 222°
2026-05-05 13:58 26.19764 104.09907 33266 ft 427 kts 222°
2026-05-05 13:58 26.17463 104.07840 32765 ft 425 kts 222°
2026-05-05 13:58 26.15191 104.05799 32278 ft 423 kts 221°
2026-05-05 13:59 26.10601 104.01673 31316 ft 421 kts 221°
2026-05-05 13:59 26.08318 103.99628 30850 ft 421 kts 221°
2026-05-05 14:00 26.03767 103.95554 29933 ft 419 kts 221°
2026-05-05 14:00 26.02269 103.94215 29587 ft 418 kts 221°
2026-05-05 14:00 25.99251 103.91514 28884 ft 414 kts 222°
2026-05-05 14:00 25.97848 103.90097 28544 ft 409 kts 229°
2026-05-05 14:01 25.95543 103.86793 27875 ft 402 kts 238°
2026-05-05 14:01 25.94506 103.85103 27544 ft 400 kts 238°
2026-05-05 14:01 25.92940 103.82561 27058 ft 396 kts 238°
2026-05-05 14:01 25.91385 103.80046 26570 ft 393 kts 238°
2026-05-05 14:02 25.89845 103.77556 26130 ft 389 kts 238°
2026-05-05 14:02 25.88245 103.75152 25710 ft 386 kts 231°
2026-05-05 14:02 25.86309 103.73101 25301 ft 385 kts 220°
2026-05-05 14:02 25.84148 103.71368 24895 ft 382 kts 219°
2026-05-05 14:03 25.81996 103.69663 24496 ft 378 kts 219°
2026-05-05 14:03 25.79869 103.67974 24093 ft 374 kts 219°
2026-05-05 14:03 25.77764 103.66298 23707 ft 370 kts 219°
2026-05-05 14:03 25.75679 103.64636 23287 ft 367 kts 219°
2026-05-05 14:04 25.73613 103.62993 22823 ft 364 kts 219°
2026-05-05 14:04 25.71556 103.61358 22374 ft 362 kts 219°
2026-05-05 14:04 25.69515 103.59741 21918 ft 360 kts 219°
2026-05-05 14:04 25.67488 103.58137 21477 ft 358 kts 219°
2026-05-05 14:05 25.65466 103.56538 21033 ft 356 kts 219°
2026-05-05 14:05 25.63459 103.54955 20614 ft 353 kts 219°
2026-05-05 14:05 25.61468 103.53384 20251 ft 349 kts 219°
2026-05-05 14:05 25.59497 103.51828 19897 ft 346 kts 219°
2026-05-05 14:06 25.57552 103.50294 19554 ft 342 kts 219°
2026-05-05 14:06 25.55619 103.48767 19219 ft 339 kts 219°
2026-05-05 14:06 25.53706 103.47258 18889 ft 336 kts 219°
2026-05-05 14:06 25.51816 103.45770 18547 ft 333 kts 219°
2026-05-05 14:07 25.49938 103.44292 18211 ft 327 kts 219°
2026-05-05 14:07 25.48109 103.42852 17838 ft 320 kts 219°
2026-05-05 14:07 25.46309 103.41436 17455 ft 314 kts 219°
2026-05-05 14:07 25.44544 103.40048 17069 ft 311 kts 219°
2026-05-05 14:08 25.42782 103.38661 16685 ft 310 kts 219°
2026-05-05 14:08 25.41025 103.37277 16330 ft 309 kts 219°
2026-05-05 14:08 25.39287 103.35911 15965 ft 302 kts 219°
2026-05-05 14:08 25.37607 103.34597 15709 ft 289 kts 219°
2026-05-05 14:09 25.36005 103.33347 15475 ft 276 kts 220°
2026-05-05 14:09 25.34470 103.32148 15236 ft 264 kts 220°
2026-05-05 14:09 25.33225 103.30760 14884 ft 248 kts 245°
2026-05-05 14:09 25.32801 103.28984 14538 ft 237 kts 273°
2026-05-05 14:10 25.33229 103.27265 14195 ft 234 kts 300°
2026-05-05 14:10 25.34207 103.25844 13874 ft 231 kts 305°
2026-05-05 14:10 25.35198 103.24466 13505 ft 227 kts 304°
2026-05-05 14:10 25.36170 103.23101 13114 ft 224 kts 304°
2026-05-05 14:11 25.37121 103.21764 12781 ft 217 kts 303°
2026-05-05 14:11 25.38035 103.20483 12412 ft 208 kts 303°
2026-05-05 14:11 25.38738 103.19165 12055 ft 197 kts 283°
2026-05-05 14:12 25.38272 103.16278 11314 ft 193 kts 235°
2026-05-05 14:12 25.37278 103.15289 10985 ft 197 kts 223°
2026-05-05 14:12 25.36182 103.14344 10749 ft 196 kts 223°
2026-05-05 14:12 25.35128 103.13430 10671 ft 187 kts 223°
2026-05-05 14:13 25.34147 103.12575 10680 ft 175 kts 223°
2026-05-05 14:13 25.33217 103.11762 10692 ft 172 kts 223°
2026-05-05 14:13 25.32269 103.10932 10703 ft 171 kts 224°
2026-05-05 14:13 25.31593 103.10340 10712 ft 172 kts 224°
2026-05-05 14:14 25.30666 103.09530 10721 ft 172 kts 224°
2026-05-05 14:14 25.29731 103.08712 10732 ft 171 kts 224°
2026-05-05 14:14 25.28793 103.07893 10668 ft 172 kts 224°
2026-05-05 14:14 25.27857 103.07076 10514 ft 171 kts 224°
2026-05-05 14:15 25.26927 103.06263 10326 ft 170 kts 224°
2026-05-05 14:15 25.25042 103.04617 9930 ft 169 kts 223°
2026-05-05 14:15 25.24120 103.03812 9714 ft 168 kts 223°
2026-05-05 14:16 25.23224 103.03032 9502 ft 160 kts 223°
2026-05-05 14:16 25.22360 103.02278 9314 ft 157 kts 223°
2026-05-05 14:16 25.21507 103.01533 9098 ft 156 kts 223°
2026-05-05 14:16 25.20657 103.00791 8902 ft 155 kts 223°
2026-05-05 14:17 25.19814 103.00056 8718 ft 154 kts 223°
2026-05-05 14:17 25.18970 102.99320 8518 ft 154 kts 222°
2026-05-05 14:17 25.18131 102.98589 8326 ft 153 kts 221°
2026-05-05 14:17 25.17296 102.97861 8129 ft 153 kts 221°
2026-05-05 14:18 25.16466 102.97138 7948 ft 152 kts 220°
2026-05-05 14:18 25.15904 102.96648 7822 ft 154 kts 219°
2026-05-05 14:22 25.15264 102.96217 7908 ft 156 kts 211°
2026-05-05 14:23 25.14275 102.95603 8513 ft 170 kts 212°
2026-05-05 14:23 25.13207 102.94979 8906 ft 182 kts 211°
2026-05-05 14:23 25.12015 102.94312 9061 ft 204 kts 211°